LRSM Weather Reports


Display with metric or nautical units.
time (UTC)temp
F
wind
direction
speed
MPH
gust
MPH
rain 1hr
in
rain 24hr
in
rain mn
in
humidity
%
barometer
mb
20260506083332 73 210 7.0 0.0 0.00 0.00 0.00 38 1013.0
20260506081829 72 200 8.0 0.0 0.00 0.00 0.00 41 1013.0
20260506080332 72 200 8.0 0.0 0.00 0.00 0.00 41 1013.0
20260506073332 72 260 8.0 0.0 0.00 0.00 0.00 44 1013.0
20260506071832 70 230 6.0 0.0 0.00 0.00 0.00 43 1013.0
20260506070332 70 230 6.0 0.0 0.00 0.00 0.00 43 1013.0
20260506061832 66 210 7.0 0.0 0.00 0.00 0.00 46 1013.0
20260506060334 66 210 7.0 0.0 0.00 0.00 0.00 46 1013.0
20260506050346 61 210 5.0 0.0 0.00 0.00 0.00 55 1013.0
20260506044848 59 150 1.0 0.0 0.00 0.00 0.00 59 1012.0
20260506043336 59 150 1.0 0.0 0.00 0.00 0.00 59 1012.0
20260506041833 54 170 5.0 0.0 0.00 0.00 0.00 63 1012.0
20260506040332 54 170 5.0 0.0 0.00 0.00 0.00 63 1012.0
20260506034833 50 190 9.0 0.0 0.00 0.00 0.00 67 1012.0
20260506033332 50 190 9.0 0.0 0.00 0.00 0.00 67 1012.0
20260506031832 50 190 8.0 0.0 0.00 0.00 0.00 67 1012.0
20260506030331 50 190 8.0 0.0 0.00 0.00 0.00 67 1012.0
20260506024832 50 190 8.0 0.0 0.00 0.00 0.00 67 1012.0
20260506023332 50 190 8.0 0.0 0.00 0.00 0.00 67 1012.0
20260506021832 50 220 7.0 0.0 0.00 0.00 0.00 67 1012.0
20260506020332 50 220 7.0 0.0 0.00 0.00 0.00 67 1012.0
20260506014832 50 210 3.0 0.0 0.00 0.00 0.00 67 1012.0
20260506013332 50 210 3.0 0.0 0.00 0.00 0.00 67 1012.0
20260506011833 48 280 8.0 0.0 0.00 0.00 0.00 71 1012.0
20260506010332 48 280 8.0 0.0 0.00 0.00 0.00 71 1012.0
20260506004832 48 80 2.0 0.0 0.00 0.00 0.00 71 1011.0
20260506003452 48 80 2.0 0.0 0.00 0.00 0.00 71 1011.0
20260506001833 50 100 2.0 0.0 0.00 0.00 0.00 67 1011.0
20260506000333 50 100 2.0 0.0 0.00 0.00 0.00 67 1011.0
20260505234832 50 90 1.0 0.0 0.00 0.00 0.00 67 1011.0
20260505233332 50 90 1.0 0.0 0.00 0.00 0.00 67 1011.0
20260505231832 50 90 2.0 0.0 0.00 0.00 0.00 67 1011.0
20260505230333 50 90 2.0 0.0 0.00 0.00 0.00 67 1011.0
20260505224832 52 100 2.0 0.0 0.00 0.00 0.00 62 1011.0
20260505223332 52 100 2.0 0.0 0.00 0.00 0.00 62 1011.0
20260505221829 54 180 3.0 0.0 0.00 0.00 0.00 58 1011.0
20260505220332 54 180 3.0 0.0 0.00 0.00 0.00 58 1011.0
20260505214833 55 190 5.0 0.0 0.00 0.00 0.00 63 1011.0
20260505213332 55 190 5.0 0.0 0.00 0.00 0.00 63 1011.0
20260505211832 57 180 3.0 0.0 0.00 0.00 0.00 55 1011.0
20260505210332 57 180 3.0 0.0 0.00 0.00 0.00 55 1011.0
20260505204834 57 190 6.0 0.0 0.00 0.00 0.00 59 1011.0
20260505203332 57 190 6.0 0.0 0.00 0.00 0.00 59 1011.0
20260505201903 59 190 6.0 0.0 0.00 0.00 0.00 55 1011.0
20260505200333 59 190 6.0 0.0 0.00 0.00 0.00 55 1011.0
20260505194832 61 170 5.0 0.0 0.00 0.00 0.00 52 1011.0
20260505193332 61 170 5.0 0.0 0.00 0.00 0.00 52 1011.0
20260505191832 64 160 5.0 0.0 0.00 0.00 0.00 46 1011.0
20260505190332 64 160 5.0 0.0 0.00 0.00 0.00 46 1011.0
20260505184833 66 180 3.0 0.0 0.00 0.00 0.00 40 1011.0
20260505183333 66 180 3.0 0.0 0.00 0.00 0.00 40 1011.0
20260505181833 70 240 5.0 0.0 0.00 0.00 0.00 38 1011.0
20260505180332 70 240 5.0 0.0 0.00 0.00 0.00 38 1011.0
20260505174830 72 260 6.0 0.0 0.00 0.00 0.00 38 1011.0
20260505173332 72 260 6.0 0.0 0.00 0.00 0.00 38 1011.0
20260505171832 79 240 3.0 0.0 0.00 0.00 0.00 26 1011.0
20260505170332 79 240 3.0 0.0 0.00 0.00 0.00 26 1011.0
20260505164832 81 250 7.0 0.0 0.00 0.00 0.00 24 1011.0
20260505163332 81 250 7.0 0.0 0.00 0.00 0.00 24 1011.0
20260505161833 82 270 7.0 0.0 0.00 0.00 0.00 21 1011.0
20260505160333 82 270 7.0 0.0 0.00 0.00 0.00 21 1011.0
20260505153332 81 120 5.0 0.0 0.00 0.00 0.00 21 1011.0
20260505151840 82 190 3.0 0.0 0.00 0.00 0.00 21 1011.0
20260505150333 82 190 3.0 0.0 0.00 0.00 0.00 21 1011.0
20260505140332 82 250 7.0 0.0 0.00 0.00 0.00 21 1012.0
20260505124832 82 280 7.0 0.0 0.00 0.00 0.00 21 1013.0
20260505123332 82 280 7.0 0.0 0.00 0.00 0.00 21 1013.0
20260505121832 81 270 8.0 0.0 0.00 0.00 0.00 21 1013.0
20260505120340 81 270 7.0 0.0 0.00 0.00 0.00 20 1014.0
20260505114840 81 270 7.0 0.0 0.00 0.00 0.00 20 1014.0
20260505113403 81 270 7.0 0.0 0.00 0.00 0.00 20 1014.0
20260505111832 79 5.0 0.0 0.00 0.00 0.00 21 1014.0
20260505110333 79 5.0 0.0 0.00 0.00 0.00 21 1014.0
20260505101833 77 3.0 0.0 0.00 0.00 0.00 24 1015.0
20260505100332 77 3.0 0.0 0.00 0.00 0.00 24 1015.0
20260505094834 75 3.0 0.0 0.00 0.00 0.00 24 1015.0
20260505093332 75 3.0 0.0 0.00 0.00 0.00 24 1015.0
20260505091832 75 2.0 0.0 0.00 0.00 0.00 25 1015.0
20260505090332 75 2.0 0.0 0.00 0.00 0.00 25 1015.0
20260505084832 75 2.0 0.0 0.00 0.00 0.00 25 1015.0